TimeEET,TemperatureF,Dew PointF,Humidity,Sea Level PressureIn,VisibilityMPH,Wind Direction,Wind SpeedMPH,Gust SpeedMPH,PrecipitationIn,Events,Conditions,WindDirDegrees,DateUTC
12:20 AM,37.4,35.6,93,29.74,6.2,SSW,4.6,-,N/A,,Mostly Cloudy,210,2013-03-16 22:20:00
12:50 AM,37.4,35.6,93,29.74,6.2,SSW,8.1,-,N/A,Rain,Light Rain,210,2013-03-16 22:50:00
1:20 AM,37.4,35.6,93,29.74,6.2,SSW,9.2,-,N/A,Rain,Light Rain,210,2013-03-16 23:20:00
1:50 AM,37.4,35.6,93,29.74,6.2,WSW,9.2,-,N/A,Rain,Light Rain,240,2013-03-16 23:50:00
2:00 AM,38,36,88,29.77,6,WSW,9.2,,,Rain,Light Rain,240,2013-03-17 00:00:00
2:20 AM,37.4,35.6,93,29.74,6.2,SW,9.2,-,N/A,Rain,Light Rain,220,2013-03-17 00:20:00
2:50 AM,37.4,35.6,93,29.74,6.2,South,9.2,-,N/A,Rain,Light Rain,190,2013-03-17 00:50:00
3:20 AM,33.8,32.0,93,29.74,3.7,SW,12.7,-,N/A,Snow,Light Snow,220,2013-03-17 01:20:00
3:32 AM,33.8,32.0,93,29.74,1.6,WSW,9.2,-,N/A,Snow,Snow,250,2013-03-17 01:32:00
3:50 AM,32.0,32.0,100,29.74,1.2,West,5.8,-,N/A,Snow,Snow,260,2013-03-17 01:50:00
4:20 AM,32.0,32.0,100,29.77,3.7,West,5.8,-,N/A,Snow,Light Snow,270,2013-03-17 02:20:00
4:50 AM,32.0,28.4,87,29.77,3.7,WNW,6.9,-,N/A,Snow,Light Snow,290,2013-03-17 02:50:00
5:20 AM,30.2,30.2,100,29.77,1.2,Calm,Calm,-,N/A,Snow,Snow,0,2013-03-17 03:20:00
5:50 AM,30.2,30.2,100,29.80,1.1,Calm,Calm,-,N/A,Snow,Snow,0,2013-03-17 03:50:00
6:20 AM,30.2,30.2,100,29.80,1.0,Calm,Calm,-,N/A,Snow,Snow,0,2013-03-17 04:20:00
6:50 AM,30.2,30.2,100,29.80,1.4,Calm,Calm,-,N/A,Snow,Light Snow,0,2013-03-17 04:50:00
7:20 AM,30.2,30.2,100,29.83,2.5,Calm,Calm,-,N/A,Snow,Light Snow,0,2013-03-17 05:20:00
7:50 AM,30.2,30.2,100,29.83,5.0,Calm,Calm,-,N/A,Snow,Light Snow,0,2013-03-17 05:50:00
8:00 AM,31,30,93,29.93,5,Calm,Calm,,,Snow,Light Snow,,2013-03-17 06:00:00
8:20 AM,32.0,30.2,93,29.86,5.0,Calm,Calm,-,N/A,Snow,Light Snow,0,2013-03-17 06:20:00
8:50 AM,32.0,30.2,93,29.86,5.0,Variable,2.3,-,N/A,Snow,Light Snow,0,2013-03-17 06:50:00
9:20 AM,32.0,28.4,87,29.86,5.0,WNW,9.2,-,N/A,,Mostly Cloudy,290,2013-03-17 07:20:00
9:50 AM,32.0,28.4,87,29.86,5.0,WNW,10.4,-,N/A,,Mostly Cloudy,300,2013-03-17 07:50:00
10:20 AM,33.8,24.8,70,29.89,6.2,WNW,12.7,-,N/A,,Mostly Cloudy,290,2013-03-17 08:20:00
10:50 AM,33.8,24.8,70,29.89,6.2,WNW,16.1,-,N/A,,Mostly Cloudy,300,2013-03-17 08:50:00
11:20 AM,33.8,26.6,75,29.89,6.2,WNW,18.4,-,N/A,,Mostly Cloudy,300,2013-03-17 09:20:00
11:50 AM,35.6,23.0,60,29.89,6.2,NW,17.3,-,N/A,,Mostly Cloudy,310,2013-03-17 09:50:00
12:20 PM,35.6,24.8,65,29.89,6.2,NW,16.1,-,N/A,,Mostly Cloudy,310,2013-03-17 10:20:00
12:50 PM,35.6,23.0,60,29.89,6.2,WNW,16.1,-,N/A,,Mostly Cloudy,290,2013-03-17 10:50:00
1:20 PM,35.6,24.8,65,29.89,6.2,WNW,17.3,-,N/A,,Mostly Cloudy,300,2013-03-17 11:20:00
1:50 PM,35.6,23.0,60,29.89,6.2,WNW,17.3,-,N/A,,Mostly Cloudy,300,2013-03-17 11:50:00
2:00 PM,36,23,47,29.99,12,WNW,17.3,,,,Partly Cloudy,300,2013-03-17 12:00:00
2:20 PM,35.6,24.8,65,29.92,6.2,WNW,17.3,-,N/A,,Mostly Cloudy,290,2013-03-17 12:20:00
2:50 PM,35.6,24.8,65,29.92,6.2,WNW,18.4,-,N/A,,Mostly Cloudy,300,2013-03-17 12:50:00
3:20 PM,35.6,24.8,65,29.92,6.2,WNW,18.4,-,N/A,,Mostly Cloudy,300,2013-03-17 13:20:00
3:50 PM,35.6,24.8,65,29.92,6.2,WNW,18.4,-,N/A,,Mostly Cloudy,300,2013-03-17 13:50:00
4:20 PM,33.8,23.0,65,29.92,6.2,WNW,18.4,-,N/A,,Mostly Cloudy,290,2013-03-17 14:20:00
4:50 PM,33.8,23.0,65,29.95,6.2,WNW,17.3,-,N/A,,Mostly Cloudy,300,2013-03-17 14:50:00
5:20 PM,33.8,21.2,60,29.98,6.2,WNW,15.0,-,N/A,,Mostly Cloudy,300,2013-03-17 15:20:00
5:50 PM,33.8,19.4,56,29.98,6.2,NW,13.8,-,N/A,,Mostly Cloudy,310,2013-03-17 15:50:00
6:20 PM,32.0,19.4,60,29.98,6.2,NW,16.1,-,N/A,,Scattered Clouds,320,2013-03-17 16:20:00
6:50 PM,32.0,17.6,55,30.01,6.2,NNW,12.7,-,N/A,,Scattered Clouds,330,2013-03-17 16:50:00
7:20 PM,32.0,19.4,60,30.01,6.2,NW,9.2,-,N/A,,Scattered Clouds,320,2013-03-17 17:20:00
7:50 PM,30.2,19.4,64,30.04,6.2,NW,9.2,-,N/A,,Scattered Clouds,320,2013-03-17 17:50:00
8:00 PM,30,18,47,30.16,12,NW,9.2,,,,Partly Cloudy,320,2013-03-17 18:00:00
8:20 PM,30.2,19.4,64,30.04,6.2,NW,5.8,-,N/A,,Scattered Clouds,320,2013-03-17 18:20:00
8:50 PM,30.2,19.4,64,30.04,6.2,NW,6.9,-,N/A,,Scattered Clouds,310,2013-03-17 18:50:00
9:20 PM,30.2,19.4,64,30.04,6.2,North,6.9,-,N/A,,Scattered Clouds,360,2013-03-17 19:20:00
9:50 PM,30.2,19.4,64,30.06,6.2,NNW,6.9,-,N/A,,Scattered Clouds,340,2013-03-17 19:50:00
10:20 PM,28.4,19.4,69,30.06,6.2,North,9.2,-,N/A,,Scattered Clouds,350,2013-03-17 20:20:00
10:50 PM,28.4,19.4,69,30.06,6.2,North,5.8,-,N/A,,Scattered Clouds,350,2013-03-17 20:50:00
11:20 PM,28.4,19.4,69,30.06,6.2,North,6.9,-,N/A,,Scattered Clouds,10,2013-03-17 21:20:00
11:50 PM,26.6,19.4,74,30.06,6.2,NNW,4.6,-,N/A,,Scattered Clouds,340,2013-03-17 21:50:00